Location: Kawakawa
(35.3830°S, 174.0670°E)
Time: 09:33:49
(UTC+13:00)

Altair - Pass Details

Date: 10 December 2019
Orbit: 1502 x 1682 km, 47.2° (Epoch: 18 January)

Event Time Altitude Azimuth Distance (km) Brightness Sun altitude
Rises 09:08:34 0° 327° (NNW) 4,712 9.8 35.4°
Reaches altitude 10° 09:11:40 10° 332° (NNW) 3,756 9.4 36.0°
Maximum altitude 09:20:52 54° 46° (NE) 1,912 9.1 37.9°
Drops below altitude 10° 09:30:28 10° 119° (ESE) 3,917 10.6 39.8°
Sets 09:33:46 0° 122° (ESE) 4,925 10.8 40.5°
